HS9UAC-10 Weather Reports


time (UTC)temp
C
wind
direction
speed
KPH
gust
KPH
rain 1hr
cm
rain 24hr
cm
rain mn
cm
humidity
%
barometer
mb
20260506112944 36 0 0.0 0.0 0.00 0.00 0.00 67 1005.0
20260506111958 36 0 0.0 0.0 0.00 0.00 0.00 67 1004.0
20260506111543 36 0 0.0 0.0 0.00 0.00 0.00 66 1004.0
20260506110018 36 0 0.0 0.0 0.00 0.00 0.00 61 1004.0
20260506104454 37 0 0.0 0.0 0.00 0.00 0.00 57 1004.0
20260506102929 38 0 0.0 0.0 0.00 0.00 0.00 52 1004.0
20260506101404 38 0 0.0 0.0 0.00 0.00 0.00 53 1004.0
20260506095840 40 0 0.0 0.0 0.00 0.00 0.00 50 1004.0
20260506094315 41 0 0.0 0.0 0.00 0.00 0.00 48 1004.0
20260506092751 42 0 0.0 0.0 0.00 0.00 0.00 45 1004.0
20260506091226 45 0 0.0 0.0 0.00 0.00 0.00 40 1004.0
20260506085701 43 0 0.0 0.0 0.00 0.00 0.00 42 1004.0
20260506084137 43 0 0.0 0.0 0.00 0.00 0.00 41 1004.0
20260506082612 43 0 0.0 0.0 0.00 0.00 0.00 42 1004.0
20260506081047 43 0 0.0 0.0 0.00 0.00 0.00 42 1004.0
20260506072433 39 0 0.0 0.0 0.00 0.00 0.00 54 1005.0
20260506070908 38 0 0.0 0.0 0.00 0.00 0.00 56 1005.0
20260506062254 38 0 0.0 0.0 0.00 0.00 0.00 53 1006.0
20260506060730 40 0 0.0 0.0 0.00 0.00 0.00 50 1006.0
20260506050552 38 0 0.0 0.0 0.00 0.00 0.00 56 1007.0
20260506045027 37 0 0.0 0.0 0.00 0.00 0.00 64 1007.0
20260506043502 38 0 0.0 0.0 0.00 0.00 0.00 61 1008.0
20260506041938 37 0 0.0 0.0 0.00 0.00 0.00 63 1008.0
20260506040413 37 0 0.0 0.0 0.00 0.00 0.00 65 1008.0
20260506034849 37 0 0.0 0.0 0.00 0.00 0.00 68 1008.0
20260506033324 37 0 0.0 0.0 0.00 0.00 0.00 69 1008.0
20260506031759 36 0 0.0 0.0 0.00 0.00 0.00 73 1008.0
20260506030235 36 0 0.0 0.0 0.00 0.00 0.00 72 1008.0
20260506024710 36 0 0.0 0.0 0.00 0.00 0.00 72 1008.0
20260506023145 35 0 0.0 0.0 0.00 0.00 0.00 77 1008.0
20260506021621 35 0 0.0 0.0 0.00 0.00 0.00 77 1008.0
20260506020056 36 0 0.0 0.0 0.00 0.00 0.00 70 1008.0
20260506014532 37 0 0.0 0.0 0.00 0.00 0.00 70 1008.0
20260506013007 36 0 0.0 0.0 0.00 0.00 0.00 73 1008.0
20260506011443 36 0 0.0 0.0 0.00 0.00 0.00 75 1008.0
20260506005918 36 0 0.0 0.0 0.00 0.00 0.00 79 1007.0
20260506004354 35 0 0.0 0.0 0.00 0.00 0.00 84 1007.0
20260506002829 34 0 0.0 0.0 0.00 0.00 0.00 88 1007.0
20260506001305 33 0 0.0 0.0 0.00 0.00 0.00 91 1007.0
20260505235740 33 0 0.0 0.0 0.00 0.00 0.00 92 1007.0
20260505234215 32 0 0.0 0.0 0.00 0.00 0.00 93 1007.0
20260505232650 32 0 0.0 0.0 0.00 0.00 0.00 93 1007.0
20260505232027 33 0 0.0 0.0 0.00 0.00 0.00 92 1007.0
20260505230503 32 0 0.0 0.0 0.00 0.00 0.00 91 1006.0
20260505224937 33 0 0.0 0.0 0.00 0.00 0.00 89 1006.0
20260505223413 33 0 0.0 0.0 0.00 0.00 0.00 86 1006.0
20260505221848 33 0 0.0 0.0 0.00 0.00 0.00 83 1006.0
20260505220324 33 0 0.0 0.0 0.00 0.00 0.00 79 1006.0
20260505214759 33 0 0.0 0.0 0.00 0.00 0.00 81 1006.0
20260505213235 33 0 0.0 0.0 0.00 0.00 0.00 79 1006.0
20260505211710 33 0 0.0 0.0 0.00 0.00 0.00 79 1006.0
20260505210146 34 0 0.0 0.0 0.00 0.00 0.00 76 1006.0
20260505204621 34 0 0.0 0.0 0.00 0.00 0.00 75 1006.0
20260505203057 34 0 0.0 0.0 0.00 0.00 0.00 74 1006.0
20260505201532 34 0 0.0 0.0 0.00 0.00 0.00 73 1006.0